Regional Weather Roundup
Issued by NWS

Home | Current Version | Previous Version | Text Only | Print | Product List | Glossary Off
Versions: 1 2 3 4 5 6 7 8 9 10 11 12 13 14 15 16 17 18 19 20 21 22 23 24 25 26 27 28 29 30 31 32 33 34 35 36 37 38 39 40 41 42 43 44 45 46 47 48 49 50

000
ASUS43 KMPX 272310
RWRMN
WEATHER ROUNDUP FOR MINNESOTA
NATIONAL WEATHER SERVICE TWIN CITIES/CHANHASSEN MN
600 PM CDT FRI MAY 27 2016


NOTE: "FAIR" INDICATES FEW OR NO CLOUDS BELOW 12,000 FEET WITH NO
SIGNIFICANT WEATHER AND/OR OBSTRUCTIONS TO VISIBILITY. N/A MEANS
CURRENT SKY AND/OR WEATHER CONDITIONS ARE NOT AVAILABLE.

MNZ060>063-068>070-280000-
   Twin Cities Metro

CITY           SKY/WX    TMP DP  RH WIND       PRES   REMARKS
TWIN CITIES    CLOUDY    66  62  87 NW5       29.76F
ST PAUL        CLOUDY    65  63  93 NW7       29.76F
CRYSTAL        CLOUDY    65  59  81 N6        29.75F
BLAINE         CLOUDY    64  64 100 NW7       29.77F
EDEN PRAIRIE   CLOUDY    68  61  78 N6        29.75F
SOUTH ST PAUL  CLOUDY    66  63  88 NW6       29.76S
LAKE ELMO      CLOUDY    64  64 100 W5        29.76F
$$
MNZ001>005-007-008-013>017-022>024-027-028-280000-
   Northwest Minnesota

CITY           SKY/WX    TMP DP  RH WIND       PRES   REMARKS
BEMIDJI        CLOUDY    64  54  69 SE14      29.82F
HALLOCK        SUNNY     73  52  46 NW5       29.77S
ROSEAU         RAIN      63  57  82 E7        29.82S
WARROAD        RAIN      63  59  88 SE3       29.83S
THIEF RVR FALL CLOUDY    66  57  72 SE12      29.79F
CROOKSTON      CLOUDY    61  61 100 SE12      29.78R
FOSSTON        CLOUDY    68  57  68 E10       29.80S
DETROIT LAKES  MOSUNNY   68  59  73 SE12      29.79S
MOORHEAD       LGT RAIN  63  61  94 N7        29.77S
PARK RAPIDS    CLOUDY    64  54  69 SE10      29.81S
MAHNOMEN       MOCLDY    69  57  66 SE15      29.77S
$$
MNZ006-009>011-018-025>026-280000-
   North Central Minnesota

CITY           SKY/WX    TMP DP  RH WIND       PRES   REMARKS
BAUDETTE       CLOUDY    68  52  56 S16G24    29.84R
FLAG ISLAND    LGT RAIN  63  59  88 CALM      29.83S
INTL FALLS     PTSUNNY   68  52  56 S3        29.85F
WASKISH        PTSUNNY   66  55  68 SE8       29.83S
BIG FORK       LGT RAIN  61  57  88 SE7       29.83F
LONGVILLE      LGT RAIN  61  61 100 NE6       29.83R
GRAND RAPIDS   LGT RAIN  61  59  93 CALM      29.86F
CRANE LAKE     CLOUDY    61  57  88 CALM      29.88F
ORR            LGT RAIN  59  55  88 CALM      29.84F
COOK           DRIZZLE   61  57  88 CALM      29.87F
WALKER         CLOUDY    62  57  83 E6        29.83S
$$
MNZ012-019>021-037-280000-
   Northeast Minnesota

CITY           SKY/WX    TMP DP  RH WIND       PRES   REMARKS
DULUTH         LGT RAIN  52  51  97 E8        29.84F
ELY            LGT RAIN  61  57  88 E3        29.89S
HIBBING        CLOUDY    60  56  86 NE6       29.85F
EVELETH        CLOUDY    63  59  88 NE6       29.87F
DULUTH HARBOR  DRIZZLE   48  46  93 N16       29.85F
TWO HARBORS    LGT RAIN  52  46  82 NE8       29.85F
SILVER BAY     LGT RAIN  48  46  93 N3        29.87F
GRAND MARAIS     N/A     51  48  89 VRB5      29.87F
G MARAIS ARPRT DRIZZLE   57  52  82 N8        29.91F
$$
MNZ029>031-032-039>041-046>048-054>057-064-280000-
   West Central Minnesota

CITY           SKY/WX    TMP DP  RH WIND       PRES   REMARKS
FERGUS FALLS   CLOUDY    70  57  64 SE6       29.73S
WHEATON        CLOUDY    72  59  64 W5        29.76S
MORRIS         CLOUDY    70  61  73 SE9       29.72F
ALEXANDRIA     CLOUDY    62  58  86 E13       29.78F
ELBOW LAKE     FAIR      68  59  72 SE6       29.76R
WADENA         CLOUDY    63  57  82 E13       29.80S
GLENWOOD       MOSUNNY   64  61  88 E15       29.79R
APPLETON       MOSUNNY   73  57  56 CALM      29.72F
ORTONVILLE     PTSUNNY   68  57  68 NW6       29.73F
MADISON        SUNNY     70  57  64 N5        29.72F
WILLMAR        FAIR      68  63  83 E8        29.77F
$$
MNZ033>034-036-042>043-049>051-058-059-280000-
   Central Minnesota

CITY           SKY/WX    TMP DP  RH WIND       PRES   REMARKS
ST CLOUD       LGT RAIN  60  59  96 N6        29.79F VSB 1
SAUK CENTRE    CLOUDY    61  59  91 E14G20    29.80R
PAYNESVILLE    CLOUDY    64  61  91 NE8       29.79S
AITKIN         MIX PCPN  63  57  82 NE7       29.81S
PINE RIVER     DRIZZLE   63  61  94 E12       29.84F
BRAINERD       LGT RAIN  61  59  93 E8        29.82F FOG
STAPLES        DRIZZLE   59  57  94 SE8       29.79F
LONG PRAIRIE   LGT RAIN  59  57  94 E12G20    29.81S
LITTLE FALLS   LGT RAIN  61  55  82 CALM      29.82S
LITCHFIELD     DRIZZLE   64  64 100 E5        29.78F
BUFFALO        CLOUDY    63  58  85 NE6       29.79S
MAPLE LAKE     CLOUDY    63  61  94 NE5       29.80S
HUTCHINSON     CLOUDY    68  63  85 E8        29.77F
$$
MNZ037-044-045-052-053-280000-
   East Central Minnesota

CITY           SKY/WX    TMP DP  RH WIND       PRES   REMARKS
PRINCETON      DRIZZLE   63  61  94 N5        29.79F
MORA           DRIZZLE   55  54  94 N5        29.82S
CAMBRIDGE      RAIN      64  55  72 CALM      29.76F
RUSH CITY      CLOUDY    61  59  92 NE7       29.78S
MOOSE LAKE     LGT RAIN  54  52  94 NE6       29.81S
HINCKLEY       CLOUDY    57  55  94 N8        29.80S
CLOQUET        DRIZZLE   52  50  93 E7        29.84S
MCGREGOR       CLOUDY    61  59  94 NE6       29.84S
$$
MNZ071>073-080-081-089-090-097-098-280000-
   Southwest Minnesota

CITY           SKY/WX    TMP DP  RH WIND       PRES   REMARKS
MONTEVIDEO     MOSUNNY   77  59  53 CALM      29.74F
GRANITE FALLS  SUNNY     74  59  59 NE6       29.73F
CANBY          MOSUNNY   74  62  66 NW8       29.74F
MARSHALL       PTSUNNY   74  56  53 VRB3      29.71F
REDWOOD FALLS  MOSUNNY   70  62  76 NE5       29.72F
OLIVIA         CLOUDY    70  59  68 CALM      29.73F
PIPESTONE      MOSUNNY   72  54  53 NE6       29.72F
WINDOM         SUNNY     73  55  53 CALM      29.72F
WORTHINGTON    MOSUNNY   73  55  53 CALM      29.73F
JACKSON        PTSUNNY   75  54  46 NW8       29.73S
TRACY          MOSUNNY   73  60  63 NE9       29.72F
SLAYTON        MOSUNNY   72  54  53 N8        29.73F
$$
MNZ065>067-074>077-082>085-091>093-280000-
   South Central Minnesota

CITY           SKY/WX    TMP DP  RH WIND       PRES   REMARKS
MANKATO        PTSUNNY   70  59  68 NE5       29.73F
NEW ULM        MOSUNNY   70  63  78 E18G26    29.72F
ST JAMES       SUNNY     68  55  64 CALM      29.73F
FAIRMONT       PTSUNNY   75  55  50 N8        29.71F
GLENCOE        PTSUNNY   66  64  93 E6        29.75F
FARIBAULT      PTSUNNY   66  64  94 VRB6      29.75F
OWATONNA       SUNNY     68  61  77 N6        29.74F
WASECA         MOSUNNY   70  61  73 N7        29.74F
ALBERT LEA     PTSUNNY   72  61  68 CALM      29.73F
$$
MNZ078>079-086>088-094>096-280000-
   Southeast Minnesota

CITY           SKY/WX    TMP DP  RH WIND       PRES   REMARKS
ROCHESTER      MOSUNNY   70  66  87 NW8       29.74F
RED WING       CLOUDY    70  64  83 W6        29.73F
STANTON        CLOUDY    68  63  83 N6        29.74F
DODGE CENTER   MOSUNNY   70  66  88 N6        29.74F
WINONA         CLOUDY    73  64  73 SE3       29.72F
AUSTIN         SUNNY     70  61  73 CALM      29.73F
PRESTON        CLOUDY    69  65  86 SE7       29.75F
$$
ABBREVIATIONS USED IN REMARKS
   TC - TEMPERATURES IN CELSIUS
  WCI - WIND CHILL INDEX
   HX - HEAT INDEX
  VSB - VISIBILITY
$$




USA.gov is the U.S. government's official web portal to all federal, state and local government web resources and services.